Location: Krakow
(50.0830°N, 19.9170°E)
Time: 10:45:01
(UTC+01:00)

Transit 4A - Visible Passes

Search period start: 11 December 2023 00:00
Search period end: 21 December 2023 00:00
Orbit: 865 x 979 km, 66.8° (Epoch: 09 December)

Date Brightness Start Highest point End Pass type
(mag) Time Alt. Az. Time Alt. Az. Time Alt. Az.
11 Dec 9.7 16:32:20 10° ESE 16:34:27 12° E 16:36:34 10° E visible
11 Dec 7.9 18:13:20 10° SSW 18:19:35 59° ESE 18:20:16 56° E visible
11 Dec 9.6 20:00:19 10° WSW 20:03:48 29° W 20:03:48 29° W visible
12 Dec 9.4 16:39:11 10° SE 16:43:11 18° ESE 16:46:14 13° ENE visible
12 Dec 7.8 18:22:15 10° SSW 18:28:39 80° ESE 18:29:45 62° NE visible
12 Dec 9.8 20:10:01 10° W 20:13:18 25° WNW 20:13:18 25° WNW visible
13 Dec 9.1 16:46:58 10° SSE 16:51:59 25° ESE 16:55:39 15° ENE visible
13 Dec 8.0 18:31:23 10° SW 18:37:47 78° NW 18:39:10 56° NNE visible
13 Dec 10.1 20:19:50 10° W 20:22:42 21° WNW 20:22:42 21° WNW visible
14 Dec 8.7 16:55:12 10° S 17:00:52 35° ESE 17:04:59 17° ENE visible
14 Dec 8.3 18:40:41 10° SW 18:46:59 60° NW 18:48:30 47° N visible
14 Dec 10.3 20:29:44 10° WNW 20:32:02 18° NW 20:32:02 18° NW visible
15 Dec 8.3 17:03:44 10° S 17:09:48 48° ESE 17:14:15 18° NE visible
15 Dec 8.7 18:50:09 10° WSW 18:56:16 46° NW 18:57:46 39° N visible
15 Dec 10.4 20:39:40 10° WNW 20:41:17 15° NW 20:41:17 15° NW visible
16 Dec 8.0 17:12:31 10° SSW 17:18:49 66° ESE 17:23:28 19° NE visible
16 Dec 9.1 18:59:45 10° WSW 19:05:36 37° NW 19:06:59 33° N visible
16 Dec 10.6 20:49:36 10° NW 20:50:29 13° NW 20:50:29 13° NW visible
17 Dec 7.9 17:21:30 10° SSW 17:27:54 87° SE 17:32:37 19° NE visible
17 Dec 9.3 19:09:29 10° W 19:15:00 30° NNW 19:16:08 28° NNW visible
17 Dec 10.7 20:59:29 10° NW 20:59:38 10° NW 20:59:38 10° NW visible
18 Dec 8.2 17:30:41 10° SW 17:37:03 72° NW 17:41:43 19° NNE visible
18 Dec 9.5 19:19:20 10° W 19:24:29 25° NNW 19:25:14 25° NNW visible
19 Dec 8.5 17:40:02 10° WSW 17:46:17 55° NW 17:50:48 19° NNE visible
19 Dec 9.7 19:29:15 10° WNW 19:34:01 22° NNW 19:34:18 22° NNW visible
20 Dec 8.9 17:49:33 10° WSW 17:55:35 43° NW 17:59:50 18° NNE visible
20 Dec 9.9 19:39:12 10° WNW 19:43:20 19° NNW 19:43:20 19° NNW visible
